Regional Weather Roundup
Issued by NWS

Home | Current Version | Previous Version | Graphics & Text | Print | Product List | Glossary Off
Versions: 1 2 3 4 5 6 7 8 9 10 11 12 13 14 15 16 17 18 19 20 21 22 23 24 25 26 27 28 29 30 31 32 33 34 35 36 37 38 39 40 41 42 43 44 45 46 47 48 49 50

000
ASUS43 KTOP 021508
RWRKS

WEATHER ROUNDUP FOR KANSAS
NATIONAL WEATHER SERVICE GOODLAND KS
1000 AM CDT MON MAY 02 2016

NOTE:  "FAIR" INDICATES FEW OR NO CLOUDS BELOW 12,000 FEET WITH NO
SIGNIFICANT WEATHER AND/OR OBSTRUCTIONS TO VISIBILITY.

KSZ001>006-013>018-027>032-041>047-021600-
NORTHWEST KANSAS

CITY           SKY/WX    TMP DP  RH WIND       PRES   REMARKS
GOODLAND       SUNNY     48  33  56 NW12      30.23S
HAYS           SUNNY     54  36  50 N8        30.20S
HILL CITY      SUNNY     52  37  56 NW10      30.21S
RUSSELL        SUNNY     53  41  63 NW10      30.18F
$$

KSZ061>065-074>080-084>089-021600-
SOUTHWEST KANSAS

CITY           SKY/WX    TMP DP  RH WIND       PRES   REMARKS
DODGE CITY     SUNNY     48  39  71 NW13      30.22S
ELKHART          N/A     46  32  58 NW9         N/A
GARDEN CITY    MOSUNNY   47  36  65 N12       30.23R
GREAT BEND     SUNNY     52  39  62 N9        30.20S
LIBERAL        SUNNY     46  37  71 NW10      30.25S
PRATT          CLOUDY    47  39  73 N13       30.20S
$$

KSZ066>073-081>083-090>101-021600-
SOUTHEAST KANSAS

CITY           SKY/WX    TMP DP  RH WIND       PRES   REMARKS
CHANUTE        CLOUDY    51  42  71 N10       30.14R
COFFEYVILLE    CLOUDY    52  45  77 N8        30.15R
HUTCHINSON     CLOUDY    53  42  66 N9        30.18S
MEDICINE LODGE   N/A     52  42  69 N12       30.20R
NEWTON         CLOUDY    50  39  66 N13       30.19R
PARSONS        CLOUDY    52  45  77 N10       30.16R
WICHITA INTL   PTSUNNY   54  43  66 N16G24    30.17R
WICHITA JABRA  CLOUDY    53  44  71 NW13      30.16S
WICHITA MCCONL MOSUNNY   53  43  69 N14G21    30.16S
WINFIELD       CLOUDY    51  43  74 N10       30.18R
$$

KSZ007>012-019>026-033>040-048>060-102>105-021600-
NORTHEAST KANSAS

CITY           SKY/WX    TMP DP  RH WIND       PRES   REMARKS
CONCORDIA      MOSUNNY   53  44  71 NW7       30.16F
EMPORIA        CLOUDY    51  44  77 NW12      30.14S
LAWRENCE       CLOUDY    53  44  71 NW10      30.12F
MANHATTAN      CLOUDY    52  42  69 N6        30.15S
MARYSVILLE     CLOUDY    50  45  81 N7        30.14F
OLATHE IND     CLOUDY    50  45  83 N7        30.13S
OLATHE EXE     CLOUDY    50  44  80 N7        30.12S
SALINA         CLOUDY    53  44  71 NW12      30.17F
TOPEKA BILLARD CLOUDY    54  45  71 NW9       30.13S
TOPEKA FORBES  CLOUDY    56  45  66 NW10      30.12F
$$



USA.gov is the U.S. government's official web portal to all federal, state and local government web resources and services.